Regional Weather Roundup
Issued by NWS

Home | Current Version | Previous Version | Graphics & Text | Print | Product List | Glossary On
Versions: 1 2 3 4 5 6 7 8 9 10 11 12 13 14 15 16 17 18 19 20 21 22 23 24 25 26 27 28 29 30 31 32 33 34 35 36 37 38 39 40 41 42 43 44 45 46 47 48 49 50
000
ASUS45 KSLC 281410
RWRUT

UTAH REGIONAL WEATHER ROUNDUP
NATIONAL WEATHER SERVICE SALT LAKE CITY UT
800 AM MDT MON JUL 28 2014

UTZ001>011-023>025-281500-

NORTHERN UTAH

CITY           SKY/WX    TMP DP  RH WIND       PRES   REMARKS
HILL AFB       PTSUNNY   76  45  32 E7        30.24R
LOGAN            N/A     62  51  67 N5        30.21
OGDEN            N/A     76  43  30 S9        30.21
PROVO AIRPORT  PTSUNNY   75  50  41 SE10      30.26R
SALT LAKE CITY PTSUNNY   80  48  32 S9        30.18
VERNAL           N/A     73  43  33 NW3       30.31
WENDOVER         N/A     79  48  34 E6        30.18R
HEBER CITY       N/A     68  46  45 CALM      30.33R
WEST JORDAN    SUNNY     81  57  44 SE12      30.24

$$

UTZ012>022-026-027-281500-

SOUTHERN UTAH

CITY           SKY/WX    TMP DP  RH WIND       PRES   REMARKS
BRYCE CANYON     N/A     60  56  86 NE7       30.48
CEDAR CITY       N/A     68  53  58 SE5       30.31
MILFORD          N/A     72  56  57 W7        30.25
MOAB/CYNLANDS    N/A     76  59  55 N5        30.26S
PRICE            N/A     69  49  48 CALM      30.37
ST GEORGE        N/A     79  55  44 E5        30.18R

$$

REGIONAL REPORTS     COLORADO/ARIZONA

CITY           SKY/WX    TMP DP  RH WIND       PRES   REMARKS
CRAIG, CO      SUNNY     54  49  83 CALM      30.40
GRAND JUNCTION PTSUNNY   73  51  46 SE3       30.31
RIFLE          PTSUNNY   67  50  54 NE3       30.37
MONTROSE       CLOUDY    70  51  51 CALM      30.40
CORTEZ         CLOUDY    65  59  81 CALM      30.41
PAGE, AZ         N/A     76  55  48 SW5       30.26R
GRAND CANYON     N/A     57  55  93 CALM      30.43
KINGMAN          N/A     77  54  44 SE10      30.17R
FLAGSTAFF      CLOUDY    59  54  83 CALM      30.45

$$

REGIONAL REPORTS    NEVADA/IDAHO/WYOMING

CITY           SKY/WX    TMP DP  RH WIND       PRES   REMARKS
LAS VEGAS, NV  PTSUNNY   81  63  54 S8        30.07
ELY              N/A     62  52  69 W5        30.35
ELKO             N/A     73  46  38 CALM      30.24
POCATELLO, ID    N/A     62  44  51 NW5       30.20
BURLEY           N/A     67  52  58 E5        30.15
EVANSTON, WY   PTSUNNY   65  33  30 E8        30.42
ROCK SPRINGS   SUNNY     66  50  56 E7        30.41

$$


USA.gov is the U.S. government's official web portal to all federal, state and local government web resources and services.